STARLINK-32382, 61258

Orbit data source: Space-Track

STARLINK-32382, 61258 is a payload satellite owned by SpaceX/Seattle (US) in LEO that was launched on Wed, 25 Sep 2024 UTC via an FALCON 9 launch vehicle from the Air Force Western Test Range (AFWTR). Payload-class satellites include a variety of spacecraft equipped with specific instruments for various scientific and technological missions. These include communications satellites like Starlink; space stations such as the ISS; scientific satellites like the Hubble; Earth observation satellites from companies like Planet Labs, Umbra, and HawkEye 360; GPS; miniature CubeSats for education and research; and military/defense satellites.

Loading next visibility...
Identifier
61258, 2024-175R
Orbit
LEO
Last TLE update
16 hours ago
Origin
Manufacturer
SpaceX/Seattle
Mission
Operational Commercial Communications
Bus & Motor
STARLINK V2M, Unknown motor
Mass
730 kg wet, ~700 kg dry
Launch date (UTC)
2024-09-25 (9 months ago)
Launch vehicle
FALCON 9
Launch site
Air Force Western Test Range (AFWTR)
Object type
Payload
Rocket body
Debris
Shape & HBR
Box + 2 Pan, 29 m
Radar Cross Section
33.884 m², Large (>1 m²)

Expand to show TLE details & history

TLE from 16 hours ago
0 STARLINK-32382
1 61258U 24175R   25182.56111538 -.00000181  00000-0  60157-5 0  9994
2 61258  53.1601 280.5822 0001143  78.1463 281.9666 15.30190338 43003
Epoch: 2025-07-01T13:28Z
TLE epoch observation values (Epoch: 2025-07-01T13:28:00.368Z)
Latitude
-0.00003°
Longitude
158.72584°
Altitude
475.981 km
Speed
7.629 km/s
True Right ascension
18h 42m 19s
True Declination
0° 00' 00"
Sunlit
Object was in full shadow at epoch
Visualization orbit readout
Latitude
24.32625°
Longitude
-44.11695°
Altitude
475.862 km
Speed
7.631 km/s
Apparent Right ascension
05h 18m 55s
Apparent Declination
-6° 28' 19"
Sunlit
Object is in daylight
Visualization observer readout
Local Sidereal Time
17:29:05
Azimuth
4.576° NNE
Elevation
-56.478°
Doppler factor
1
Orbital elements
Apogee altitude
476.284 km
Perigee altitude
474.717 km
Semi-major axis
6,853.637 km
Eccentricity
0.00011
Inclination
53.1601°
RAAN
280.5822°
Arg. of periapsis
78.1463°
True anomaly
Unknown
Mean anomaly
281.9666°
Eccentric anomaly
Unknown
Mean motion
3.82526 °/min
Orbital period
94.11 mins
BSTAR
0.0000060157
Loading maneuver chart data...
Loading SW <> Apogee altitude chart data...
Loading historical data...
Loading historical data...
Loading historical data...
Loading historical data...
Loading historical data...
Loading historical data...
Loading historical data...

STARLINK-32382 Visibility forecast

Observer location: undefined°, undefined°

Span
Click to sort rows by Start time (UTC) header in descending order
Start Az.
Max El. time (UTC)
Max El. Az.
Max El.
End time (UTC)
End Az.
5 mins2025-07-02 08:26:27.761Z182.016° SSW2025-07-02 08:28:27.761Z138.322° SSE25.022°2025-07-02 08:31:27.761Z74.556° E
5 mins2025-07-02 10:04:27.761Z272.055° WNW2025-07-02 10:06:27.761Z326.002° NNW30.207°2025-07-02 10:09:27.761Z32.962° NE
5 mins2025-07-02 15:01:27.761Z341.026° N2025-07-02 15:03:27.761Z30.607° NE25.942°2025-07-02 15:06:27.761Z90.32° ESE
5 mins2025-07-02 16:39:27.761Z282.054° WNW2025-07-02 16:41:27.761Z223.517° SW31.323°2025-07-02 16:44:27.761Z160.138° S
|